Regional Weather Roundup
Issued by NWS Bismarck, ND

Home | Current Version | Previous Version | Text Only | Print | Product List | Glossary On
Versions: 1 2 3 4 5 6 7 8 9 10 11 12 13 14 15 16 17 18 19 20 21 22 23 24 25 26 27 28 29 30 31 32 33 34 35 36 37 38 39 40 41 42 43 44 45 46 47 48 49 50
000
ASUS43 KBIS 111510
RWRBIS

NWR BROADCAST TEXT
NATIONAL WEATHER SERVICE BISMARCK ND
900 AM CST THU FEB 11 2016

NOTE: "FAIR" INDICATES FEW OR NO CLOUDS BELOW 12,000 FEET WITH NO
SIGNIFICANT WEATHER AND/OR OBSTRUCTIONS TO VISIBILITY.


CITY           SKY/WX    TMP DP  RH WIND       PRES   REMARKS
WILLISTON      LGT SNOW  22  18  85 NE7       30.08S FOG     WCI  13
MINOT          CLOUDY    15   7  70 NE5       30.14R WCI   8
MINOT AFB      CLOUDY    12   9  88 E5        30.14R WCI   4
BISMARCK       LGT SNOW  20  15  81 E6        30.12S VSB 1   WCI  12
DICKINSON      LGT SNOW  22  19  89 E7        29.99S VSB 3/4 WCI  13
GARRISON         N/A     16  12  84 E7        30.10S WCI   6
HETTINGER ARPT LGT SNOW  29  27  92 S7        29.99S FOG
JAMESTOWN      CLOUDY     8   5  87 S7        30.16F FOG     WCI  -3
BEACH          LGT SNOW  28  28 100 E7        30.01S
CARRINGTON     CLOUDY     9   9 100 S9        30.17F WCI  -5
HAZEN          LGT SNOW  18  14  86 NE7       30.12S WCI   8
LINTON         LGT SNOW  16  16 100 SE8       30.12F WCI   5
MANDAN         LGT SNOW  18  16  93 E7        30.10S WCI   8
OAKES          CLOUDY    10   7  85 SE5       30.20S WCI   2
RUGBY          CLOUDY    10   7  85 E3        30.16S
STANLEY        LGT SNOW  16  16 100 E8        30.10S WCI   5
TIOGA          LGT SNOW  18  18 100 E8        30.12S WCI   7
WATFORD CITY   LGT SNOW  21  19  93 E6        30.06S WCI  14
$$

CITY           SKY/WX    TMP DP  RH WIND       PRES   REMARKS
GRAND FORKS    CLOUDY     7   0  73 S6        30.26S WCI  -3
GRAND FORKS AF FLURRIES   7   1  75 S6        30.24F WCI  -3
DEVILS LAKE    FLURRIES   8   4  83 S3        30.18S
FARGO          CLOUDY     8  -1  66 SE3       30.26F
CAVALIER       PTSUNNY    7   3  85 S6        30.24S WCI  -3
GRAFTON        CLOUDY     7   1  78 S7        30.27S WCI  -5
GWINNER        CLOUDY    10   7  85 E6        30.21F WCI   1
LANGDON        FLURRIES   7   3  85 W5        30.16F WCI  -2
ROLLA          FLURRIES   9   5  85 N6        30.15S WCI  -1
WALHALLA       FLURRIES   9   7  92 CALM      30.23S
$$

CITY           SKY/WX    TMP DP  RH WIND       PRES   REMARKS
ABERDEEN       CLOUDY    17  12  80 S8        30.20S WCI   7
MOBRIDGE       LGT SNOW  22  19  89 SE10      30.06F FOG     WCI  11
BUFFALO          N/A     31  28  89 S12       29.89F
RAPID CITY     FOG       28  27  96 CALM      30.00R VSB<1/4
GLASGOW        LGT SNOW  28  24  85 E10       30.04R FOG     WCI  19
SIDNEY         CLOUDY    27  23  86 N10       30.05R VSB 1   WCI  17
WOLF POINT     SNOW      28  24  85 NE9       30.07R VSB 1/4 WCI  19
GLENDIVE       CLOUDY    28  27  93 NE8       30.02S
MILES CITY     CLOUDY    31  28  89 SW3       30.01R
BAKER          CLOUDY    31  27  85 VRB5      29.95R
$$

CITY           SKY/WX    TMP DP  RH WIND       PRES   REMARKS
BILLINGS       CLOUDY    47  25  42 NW12      30.12R
GREAT FALLS    CLOUDY    36  24  62 SW12      30.13R
REGINA         FLURRIES  16  10  79 E2        30.16R
ESTEVAN        FLURRIES  12   9  85 E8        30.13S WCI   1
$$




USA.gov is the U.S. government's official web portal to all federal, state and local government web resources and services.